Louisa, VA

5:59 PM EDT on May 26, 2018 (GMT -0400)
Louisa County-Freeman

Weather History for KLKU - December, 2012

Change the Weather History Date:

Friday, December 21, 2012

  Actual Average (KOMH) Record (KOMH)
Temperature  
Mean Temperature 46 °F -  
Max Temperature 57 °F 45 °F 73 °F (1956)
Min Temperature 35 °F 27 °F 7 °F (1963)
Degree Days  
Heating Degree Days 19    
Moisture  
Dew Point 28 °F    
Average Humidity 58    
Maximum Humidity 94    
Minimum Humidity 39    
Precipitation  
Precipitation 0.13 in - - ()
Sea Level Pressure  
Sea Level Pressure 29.46 in    
Wind  
Wind Speed 12 mph (WSW)    
Max Wind Speed 22 mph    
Max Gust Speed 33 mph    
Visibility 10 miles    
Events Rain    
Averages and records for this station are not official NWS values.
T = Trace of Precipitation, MM = Missing Value Source: NWS Daily Summary

Daily Weather History Graph

Daily Weather History Graph

Search for Another Location

Airport or City:

Astronomy

Dec. 21, 2012 Rise Set
Actual Time 7:24 AM EST 4:56 PM EST
Civil Twilight 6:54 AM EST 5:25 PM EST
Nautical Twilight 6:21 AM EST 5:58 PM EST
Astronomical Twilight 5:49 AM EST 6:30 PM EST
Moon 12:38 PM EST (12/21) 1:13 AM EST (12/21)
Length of Visible Light 10h 30m
Length of Day
9h 31m
Waxing Gibbous, 64% of the Moon is Illuminated
Dec 21
Waxing Gibbous
Dec 28
Full
Jan 4
Last Quarter
Jan 11
New
Jan 18
First Quarter

Hourly Weather History & Observations

Time (EST) Temp. Windchill Dew Point Humidity Pressure Visibility Wind Dir Wind Speed Gust Speed Precip Events Conditions
12:15 AM 57.2 °F - 55.4 °F 94% 29.32 in 10.0 mi SSE 11.5 mph 17.3 mph 0.02 in Rain Rain
12:35 AM 57.2 °F - 55.4 °F 94% 29.32 in 7.0 mi South 4.6 mph - 0.05 in Rain Light Rain
12:55 AM 57.2 °F - 55.4 °F 94% 29.33 in 10.0 mi WSW 15.0 mph 27.6 mph 0.12 in Rain Rain
1:15 AM 55.4 °F - 51.8 °F 88% 29.34 in 10.0 mi SW 11.5 mph 21.9 mph N/A   Overcast
1:35 AM 51.8 °F - 50.0 °F 94% 29.34 in 10.0 mi SSW 6.9 mph - 0.01 in Rain Light Rain
1:55 AM 51.8 °F - 48.2 °F 88% 29.34 in 10.0 mi WSW 9.2 mph - 0.01 in Rain Light Rain
2:15 AM 50.0 °F - 46.4 °F 87% 29.35 in 10.0 mi WSW 6.9 mph - N/A   Overcast
2:35 AM 48.2 °F - 46.4 °F 93% 29.34 in 10.0 mi WSW 11.5 mph 18.4 mph N/A   Overcast
2:55 AM 48.2 °F - 44.6 °F 87% 29.35 in 10.0 mi WSW 8.1 mph - N/A   Overcast
3:15 AM 46.4 °F 41.9 °F 44.6 °F 93% 29.35 in 10.0 mi WSW 9.2 mph - N/A   Overcast
3:35 AM 46.4 °F 42.4 °F 42.8 °F 87% 29.35 in 10.0 mi WSW 8.1 mph - N/A   Overcast
3:55 AM 46.4 °F 43.5 °F 42.8 °F 87% 29.34 in 10.0 mi WSW 5.8 mph - N/A   Mostly Cloudy
4:15 AM 44.6 °F 42.2 °F 42.8 °F 93% 29.34 in 10.0 mi SW 4.6 mph - N/A   Mostly Cloudy
4:35 AM 46.4 °F 42.4 °F 39.2 °F 76% 29.34 in 10.0 mi WSW 8.1 mph 16.1 mph N/A   Overcast
4:55 AM 46.4 °F 41.1 °F 39.2 °F 76% 29.34 in 10.0 mi West 11.5 mph 16.1 mph N/A   Overcast
5:15 AM 44.6 °F 38.4 °F 37.4 °F 76% 29.35 in 10.0 mi West 12.7 mph 18.4 mph N/A   Overcast
5:35 AM 44.6 °F 39.7 °F 35.6 °F 71% 29.36 in 10.0 mi West 9.2 mph - N/A   Overcast
5:55 AM 42.8 °F 38.0 °F 33.8 °F 70% 29.37 in 10.0 mi West 8.1 mph 19.6 mph N/A   Overcast
6:15 AM 42.8 °F 37.0 °F 30.2 °F 61% 29.38 in 10.0 mi WSW 10.4 mph 19.6 mph N/A   Overcast
6:35 AM 42.8 °F 36.2 °F 30.2 °F 61% 29.39 in 10.0 mi West 12.7 mph 19.6 mph N/A   Overcast
6:55 AM 42.8 °F 37.0 °F 28.4 °F 57% 29.40 in 10.0 mi West 10.4 mph 18.4 mph N/A   Overcast
7:15 AM 41.0 °F 35.2 °F 28.4 °F 61% 29.41 in 10.0 mi West 9.2 mph - N/A   Mostly Cloudy
7:35 AM 41.0 °F 35.2 °F 28.4 °F 61% 29.41 in 10.0 mi WSW 9.2 mph - N/A   Mostly Cloudy
7:55 AM 42.8 °F 36.2 °F 26.6 °F 53% 29.42 in 10.0 mi West 12.7 mph 17.3 mph N/A   Overcast
8:15 AM 42.8 °F 35.1 °F 26.6 °F 53% 29.43 in 10.0 mi West 16.1 mph 23.0 mph N/A   Overcast
8:35 AM 42.8 °F 35.8 °F 26.6 °F 53% 29.43 in 10.0 mi West 13.8 mph 23.0 mph N/A   Overcast
8:55 AM 42.8 °F 35.8 °F 26.6 °F 53% 29.43 in 10.0 mi West 13.8 mph 20.7 mph N/A   Overcast
9:15 AM 42.8 °F 35.4 °F 26.6 °F 53% 29.44 in 10.0 mi West 15.0 mph 25.3 mph N/A   Overcast
9:35 AM 42.8 °F 35.8 °F 26.6 °F 53% 29.45 in 10.0 mi WSW 13.8 mph 21.9 mph N/A   Mostly Cloudy
9:55 AM 42.8 °F 36.6 °F 24.8 °F 49% 29.46 in 10.0 mi West 11.5 mph 24.2 mph N/A   Mostly Cloudy
10:15 AM 42.8 °F 33.8 °F 23.0 °F 46% 29.46 in 10.0 mi West 21.9 mph 29.9 mph N/A   Mostly Cloudy
10:35 AM 44.6 °F 37.8 °F 23.0 °F 43% 29.47 in 10.0 mi West 15.0 mph 31.1 mph N/A   Scattered Clouds
10:55 AM 44.6 °F 37.8 °F 23.0 °F 43% 29.46 in 10.0 mi West 15.0 mph 27.6 mph N/A   Mostly Cloudy
11:15 AM 44.6 °F 38.4 °F 24.8 °F 46% 29.46 in 10.0 mi West 12.7 mph 21.9 mph N/A   Overcast
11:35 AM 42.8 °F 34.8 °F 21.2 °F 42% 29.46 in 10.0 mi West 17.3 mph 27.6 mph N/A   Overcast
11:55 AM 42.8 °F 34.5 °F 21.2 °F 42% 29.46 in 10.0 mi West 18.4 mph 33.4 mph N/A   Overcast
12:15 PM 44.6 °F 36.9 °F 23.0 °F 43% 29.45 in 10.0 mi West 18.4 mph 28.8 mph N/A   Overcast
12:35 PM 42.8 °F 34.5 °F 21.2 °F 42% 29.45 in 10.0 mi West 18.4 mph 27.6 mph N/A   Overcast
12:55 PM 42.8 °F 34.8 °F 21.2 °F 42% 29.46 in 10.0 mi West 17.3 mph 31.1 mph N/A   Overcast
1:15 PM 42.8 °F 34.3 °F 21.2 °F 42% 29.46 in 10.0 mi West 19.6 mph 26.5 mph N/A   Overcast
1:35 PM 42.8 °F 34.5 °F 21.2 °F 42% 29.46 in 10.0 mi West 18.4 mph 24.2 mph N/A   Mostly Cloudy
1:55 PM 42.8 °F 34.3 °F 21.2 °F 42% 29.46 in 10.0 mi West 19.6 mph 31.1 mph N/A   Scattered Clouds
2:15 PM 42.8 °F 34.8 °F 19.4 °F 39% 29.46 in 10.0 mi West 17.3 mph 26.5 mph N/A   Scattered Clouds
2:35 PM 41.0 °F 33.9 °F 21.2 °F 45% 29.47 in 10.0 mi West 12.7 mph 25.3 mph N/A   Mostly Cloudy
2:55 PM 41.0 °F 34.3 °F 21.2 °F 45% 29.48 in 10.0 mi West 11.5 mph 21.9 mph N/A   Overcast
3:15 PM 41.0 °F 32.8 °F 21.2 °F 45% 29.48 in 10.0 mi West 16.1 mph 26.5 mph N/A   Mostly Cloudy
3:35 PM 41.0 °F 32.5 °F 19.4 °F 42% 29.49 in 10.0 mi West 17.3 mph 29.9 mph N/A   Overcast
3:55 PM 41.0 °F 33.1 °F 19.4 °F 42% 29.49 in 10.0 mi West 15.0 mph 29.9 mph N/A   Overcast
4:15 PM 39.2 °F 32.0 °F 21.2 °F 49% 29.50 in 10.0 mi West 11.5 mph 19.6 mph N/A   Overcast
4:35 PM 39.2 °F 29.8 °F 19.4 °F 45% 29.50 in 10.0 mi West 18.4 mph 25.3 mph N/A   Overcast
4:55 PM 39.2 °F 31.6 °F 19.4 °F 45% 29.51 in 10.0 mi WSW 12.7 mph 23.0 mph N/A   Overcast
5:15 PM 39.2 °F 30.5 °F 19.4 °F 45% 29.52 in 10.0 mi West 16.1 mph 21.9 mph N/A   Overcast
5:35 PM 39.2 °F 31.2 °F 19.4 °F 45% 29.53 in 10.0 mi West 13.8 mph 25.3 mph N/A   Mostly Cloudy
5:55 PM 37.4 °F 28.5 °F 19.4 °F 48% 29.54 in 10.0 mi West 15.0 mph 20.7 mph N/A   Mostly Cloudy
6:15 PM 37.4 °F 30.3 °F 19.4 °F 48% 29.55 in 10.0 mi West 10.4 mph - N/A   Scattered Clouds
6:35 PM 37.4 °F 27.8 °F 19.4 °F 48% 29.56 in 10.0 mi West 17.3 mph 24.2 mph N/A   Clear
6:55 PM 37.4 °F 29.8 °F 19.4 °F 48% 29.56 in 10.0 mi West 11.5 mph 20.7 mph N/A   Scattered Clouds
7:15 PM 37.4 °F 28.9 °F 19.4 °F 48% 29.56 in 10.0 mi West 13.8 mph 24.2 mph N/A   Clear
7:35 PM 37.4 °F 29.8 °F 19.4 °F 48% 29.57 in 10.0 mi West 11.5 mph 17.3 mph N/A   Mostly Cloudy
7:55 PM 37.4 °F 28.5 °F 19.4 °F 48% 29.57 in 10.0 mi West 15.0 mph 19.6 mph N/A   Scattered Clouds
8:15 PM 35.6 °F 27.1 °F 19.4 °F 52% 29.58 in 10.0 mi West 12.7 mph 23.0 mph N/A   Clear
8:35 PM 35.6 °F 27.5 °F 19.4 °F 52% 29.58 in 10.0 mi West 11.5 mph 17.3 mph N/A   Scattered Clouds
8:55 PM 37.4 °F 30.8 °F 19.4 °F 48% 29.58 in 10.0 mi West 9.2 mph 16.1 mph N/A   Mostly Cloudy
9:15 PM 35.6 °F 31.7 °F 19.4 °F 52% 29.59 in 10.0 mi WSW 4.6 mph - N/A   Scattered Clouds
9:35 PM 35.6 °F 30.7 °F 19.4 °F 52% 29.59 in 10.0 mi WSW 5.8 mph - N/A   Mostly Cloudy
9:55 PM 35.6 °F 29.9 °F 19.4 °F 52% 29.60 in 10.0 mi WSW 6.9 mph - N/A   Scattered Clouds
10:15 PM 35.6 °F 29.2 °F 19.4 °F 52% 29.60 in 10.0 mi West 8.1 mph - N/A   Clear
10:35 PM 35.6 °F 28.6 °F 19.4 °F 52% 29.61 in 10.0 mi West 9.2 mph - N/A   Clear
10:55 PM 35.6 °F 26.2 °F 19.4 °F 52% 29.61 in 10.0 mi West 15.0 mph 21.9 mph N/A   Clear
11:15 PM 37.4 °F 29.3 °F 17.6 °F 45% 29.61 in 10.0 mi West 12.7 mph 24.2 mph N/A   Clear
11:35 PM 37.4 °F 32.1 °F 17.6 °F 45% 29.62 in 10.0 mi West 6.9 mph - N/A   Clear
11:55 PM 37.4 °F 30.3 °F 17.6 °F 45% 29.62 in 10.0 mi West 10.4 mph - N/A   Clear